Weather History for EGJJ - October, 2013

Change the Weather History Date:

Tuesday, October 15, 2013

  Actual Average Record
Temperature  
Mean Temperature 54 °F -  
Max Temperature 58 °F 54 °F 68 °F (2005)
Min Temperature 50 °F 48 °F 42 °F (2004)
Degree Days  
Heating Degree Days 11    
Growing Degree Days 4 (Base 50)    
Moisture  
Dew Point 50 °F    
Average Humidity 86    
Maximum Humidity 94    
Minimum Humidity 71    
Precipitation  
Precipitation 0.00 in - - ()
Sea Level Pressure  
Sea Level Pressure 29.85 in    
Wind  
Wind Speed 7 mph ()    
Max Wind Speed 14 mph    
Max Gust Speed -    
Visibility 6.2 miles    
Events Rain    
Averages and records for this station are not official NWS values.
T = Trace of Precipitation, MM = Missing Value Source: Averaged Metar Reports

Daily Weather History Graph

Daily Weather History Graph

Search for Another Location

Airport or City:

Trip Planner

Search our weather history database for the weather conditions in past years. The results will help you decide how hot, cold, wet, or windy it might be!

Date:

Astronomy

Oct. 15, 2013 Rise Set
Actual Time 7:29 AM BST 6:18 PM BST
Civil Twilight 6:57 AM BST 6:50 PM BST
Nautical Twilight 6:20 AM BST 7:27 PM BST
Astronomical Twilight 5:43 AM BST 8:04 PM BST
Moon 4:30 PM BST (10/15) 3:17 AM BST (10/15)
Length of Visible Light 11h 53m
Length of Day
10h 48m
Waxing Gibbous, 86% of the Moon is Illuminated
Oct 15
Waxing Gibbous
Oct 19
Full
Oct 27
Last Quarter
Nov 3
New
Nov 10
First Quarter

Hourly Weather History & Observations

Time (BST) Temp. Dew Point Humidity Pressure Visibility Wind Dir Wind Speed Gust Speed Precip Events Conditions
1:00 AM 54 °F 47 °F 71% 29.89 in 31 mi West 13.8 mph - -   Partly Cloudy
3:50 AM 53.6 °F 48.2 °F 82% 29.86 in 6.2 mi WNW 6.9 mph - N/A   Partly Cloudy
4:20 AM 51.8 °F 46.4 °F 82% 29.86 in 6.2 mi WNW 9.2 mph - N/A   Partly Cloudy
4:50 AM 51.8 °F 48.2 °F 88% 29.86 in 6.2 mi West 8.1 mph - N/A   Partly Cloudy
5:20 AM 51.8 °F 48.2 °F 88% 29.86 in 6.2 mi West 8.1 mph - N/A   Scattered Clouds
5:50 AM 51.8 °F 48.2 °F 88% 29.83 in 6.2 mi WNW 3.5 mph - N/A   Scattered Clouds
6:20 AM 50.0 °F 46.4 °F 87% 29.83 in 6.2 mi WSW 2.3 mph - N/A   Partly Cloudy
6:50 AM 50.0 °F 48.2 °F 94% 29.83 in 6.2 mi SW 1.2 mph - N/A   Partly Cloudy
7:20 AM 50.0 °F 46.4 °F 87% 29.83 in 6.2 mi West 1.2 mph - N/A   Partly Cloudy
7:50 AM 50.0 °F 46.4 °F 87% 29.83 in 6.2 mi ENE 3.5 mph - N/A   Partly Cloudy
8:20 AM 51.8 °F 48.2 °F 88% 29.83 in 6.2 mi ENE 4.6 mph - N/A   Partly Cloudy
8:50 AM 51.8 °F 50.0 °F 94% 29.83 in 6.2 mi East 3.5 mph - N/A   Partly Cloudy
9:20 AM 53.6 °F 50.0 °F 88% 29.86 in 6.2 mi East 3.5 mph - N/A   Scattered Clouds
9:50 AM 53.6 °F 51.8 °F 94% 29.83 in 6.2 mi East 4.6 mph - N/A Rain Light Rain
10:00 AM 54 °F 51 °F 84% 29.86 in 28 mi East 5.8 mph - - Rain Light Rain
10:20 AM 55.4 °F 50.0 °F 82% 29.83 in 6.2 mi ESE 6.9 mph - N/A   Scattered Clouds
10:50 AM 55.4 °F 51.8 °F 88% 29.83 in 6.2 mi East 6.9 mph - N/A   Partly Cloudy
11:20 AM 55.4 °F 51.8 °F 88% 29.83 in 6.2 mi SE 8.1 mph - N/A Rain Light Rain
11:50 AM 57.2 °F 53.6 °F 88% 29.83 in 6.2 mi SE 4.6 mph - N/A   Scattered Clouds
12:20 PM 57.2 °F 53.6 °F 88% 29.83 in 6.2 mi SE 8.1 mph - N/A   Mostly Cloudy
12:50 PM 57.2 °F 53.6 °F 88% 29.83 in 6.2 mi SE 8.1 mph - N/A   Mostly Cloudy
1:00 PM 57 °F 54 °F 84% 29.83 in 22 mi SE 8.1 mph - - Rain Light Rain
1:20 PM 57.2 °F 53.6 °F 88% 29.83 in 6.2 mi ESE 6.9 mph - N/A Rain Light Rain
1:50 PM 57.2 °F 53.6 °F 88% 29.83 in 6.2 mi East 6.9 mph - N/A Rain Light Rain
2:20 PM 57.2 °F 53.6 °F 88% 29.83 in 6.2 mi ESE 6.9 mph - N/A Rain Light Rain
2:50 PM 57.2 °F 53.6 °F 88% 29.83 in 6.2 mi East 9.2 mph - N/A   Scattered Clouds
3:20 PM 59.0 °F 53.6 °F 82% 29.83 in 6.2 mi East 9.2 mph - N/A   Partly Cloudy
3:50 PM 59.0 °F 53.6 °F 82% 29.83 in 6.2 mi ENE 8.1 mph - N/A   Partly Cloudy
4:00 PM 58 °F 53 °F 80% 29.83 in 22 mi ENE 8.1 mph - -   Partly Cloudy
4:20 PM 57.2 °F 51.8 °F 82% 29.83 in 6.2 mi ENE 10.4 mph - N/A   Mostly Cloudy
4:50 PM 57.2 °F 51.8 °F 82% 29.83 in 6.2 mi ENE 12.7 mph - N/A   Mostly Cloudy
5:20 PM 57.2 °F 51.8 °F 82% 29.83 in 6.2 mi ENE 9.2 mph - N/A   Partly Cloudy
5:50 PM 55.4 °F 51.8 °F 88% 29.83 in 6.2 mi ENE 6.9 mph - N/A   Partly Cloudy
6:20 PM 55.4 °F 50.0 °F 82% 29.86 in 6.2 mi ENE 8.1 mph - N/A   Partly Cloudy
6:50 PM 53.6 °F 50.0 °F 88% 29.86 in 6.2 mi ENE 8.1 mph - N/A   Partly Cloudy
7:00 PM 54 °F 50 °F 82% 29.87 in 22 mi ENE 8.1 mph - -   Partly Cloudy
7:20 PM 53.6 °F 48.2 °F 82% 29.89 in 6.2 mi ENE 9.2 mph - N/A   Scattered Clouds
7:50 PM 53.6 °F 48.2 °F 82% 29.89 in 6.2 mi East 10.4 mph - N/A   Partly Cloudy
8:20 PM 53.6 °F 48.2 °F 82% 29.89 in 6.2 mi ENE 10.4 mph - N/A   Partly Cloudy
10:00 PM 51 °F 49 °F 88% 29.93 in 25 mi East 10.4 mph - -   Scattered Clouds